TimePDT,TemperatureF,Dew PointF,Humidity,Sea Level PressureIn,VisibilityMPH,Wind Direction,Wind SpeedMPH,Gust SpeedMPH,PrecipitationIn,Events,Conditions,WindDirDegrees,DateUTC
12:53 AM,55.9,54.0,93,29.88,10.0,Calm,Calm,-,N/A,,Clear,0,2013-09-11 07:53:00
1:53 AM,55.9,54.0,93,29.88,10.0,Calm,Calm,-,N/A,,Clear,0,2013-09-11 08:53:00
2:53 AM,55.0,53.1,93,29.88,10.0,Calm,Calm,-,N/A,,Clear,0,2013-09-11 09:53:00
3:53 AM,53.1,51.1,93,29.89,10.0,Calm,Calm,-,N/A,,Clear,0,2013-09-11 10:53:00
4:53 AM,52.0,48.9,89,29.89,10.0,Calm,Calm,-,N/A,,Clear,0,2013-09-11 11:53:00
5:53 AM,52.0,50.0,93,29.90,9.0,Calm,Calm,-,N/A,,Clear,0,2013-09-11 12:53:00
6:42 AM,51.8,48.2,88,29.91,1.8,Calm,Calm,-,N/A,,Clear,0,2013-09-11 13:42:00
6:50 AM,50.0,48.2,94,29.91,2.0,Calm,Calm,-,N/A,,Scattered Clouds,0,2013-09-11 13:50:00
6:53 AM,50.0,48.0,93,29.91,9.0,Calm,Calm,-,N/A,,Scattered Clouds,0,2013-09-11 13:53:00
7:17 AM,51.8,48.2,88,29.92,10.0,Calm,Calm,-,N/A,,Mostly Cloudy,0,2013-09-11 14:17:00
7:37 AM,53.6,51.8,94,29.92,10.0,Calm,Calm,-,N/A,,Scattered Clouds,0,2013-09-11 14:37:00
7:53 AM,57.0,54.0,89,29.92,10.0,Calm,Calm,-,N/A,,Clear,0,2013-09-11 14:53:00
8:53 AM,66.0,57.9,75,29.92,10.0,Calm,Calm,-,N/A,,Clear,0,2013-09-11 15:53:00
9:53 AM,70.0,57.9,65,29.92,10.0,Calm,Calm,-,N/A,,Clear,0,2013-09-11 16:53:00
10:53 AM,77.0,61.0,58,29.92,10.0,Variable,3.5,-,N/A,,Clear,0,2013-09-11 17:53:00
11:53 AM,79.0,61.0,54,29.91,10.0,Variable,3.5,-,N/A,,Clear,0,2013-09-11 18:53:00
12:53 PM,84.9,62.1,46,29.90,10.0,Calm,Calm,-,N/A,,Clear,0,2013-09-11 19:53:00
1:53 PM,88.0,63.0,43,29.89,10.0,Variable,4.6,-,N/A,,Clear,0,2013-09-11 20:53:00
2:53 PM,91.0,62.1,38,29.87,10.0,Calm,Calm,-,N/A,,Clear,0,2013-09-11 21:53:00
3:53 PM,93.0,62.1,36,29.86,10.0,ESE,3.5,-,N/A,,Clear,110,2013-09-11 22:53:00
4:53 PM,93.0,59.0,32,29.86,10.0,North,3.5,-,N/A,,Clear,350,2013-09-11 23:53:00
5:53 PM,91.9,59.0,33,29.85,10.0,North,3.5,-,N/A,,Clear,10,2013-09-12 00:53:00
6:53 PM,79.0,63.0,58,29.87,10.0,WSW,13.8,-,N/A,,Clear,250,2013-09-12 01:53:00
7:53 PM,66.9,60.1,79,29.90,10.0,WSW,12.7,-,N/A,,Clear,250,2013-09-12 02:53:00
8:42 PM,60.8,57.2,88,29.92,10.0,WSW,9.2,20.7,N/A,,Partly Cloudy,250,2013-09-12 03:42:00
8:53 PM,61.0,57.9,90,29.92,10.0,WSW,10.4,20.7,N/A,,Mostly Cloudy,250,2013-09-12 03:53:00
9:27 PM,60.8,59.0,94,29.93,10.0,WSW,8.1,19.6,N/A,,Overcast,240,2013-09-12 04:27:00
9:53 PM,60.1,57.9,93,29.93,4.0,WSW,15.0,23.0,N/A,,Overcast,240,2013-09-12 04:53:00
10:43 PM,60.8,57.2,88,29.94,2.0,WSW,15.0,21.9,N/A,,Overcast,240,2013-09-12 05:43:00
10:53 PM,60.1,57.9,93,29.94,2.0,WSW,11.5,-,N/A,,Overcast,250,2013-09-12 05:53:00
11:20 PM,60.8,57.2,88,29.94,4.0,WSW,13.8,23.0,N/A,,Overcast,250,2013-09-12 06:20:00
11:53 PM,59.0,57.9,96,29.94,3.0,WSW,10.4,-,N/A,,Overcast,240,2013-09-12 06:53:00